1506769201.03,45954,16.31,74210.3,8.67,-37.75,-37.93,0,*75
1506769202.31,45955,16.31,74210.8,8.67,-36.61,-36.79,0,*75
1506769203.56,45956,16.31,74210.3,8.67,-38.79,-38.97,0,*7F
1506769204.79,45957,16.31,74214.8,8.67,-39.09,-39.47,0,*74
1506769206.01,45958,16.31,74212.3,8.65,-37.39,-37.57,0,*7B
1506769207.25,45959,16.31,74208.0,8.65,-38.79,-38.85,0,*71
1506769208.51,45960,16.31,74212.8,8.63,-37.87,-37.99,0,*71
1506769209.73,45961,16.31,74214.3,8.65,-37.45,-37.69,0,*77
1506769211.01,45962,16.31,74214.5,8.63,-39.15,-39.41,0,*7D
1506769212.29,45963,16.31,74214.5,8.63,-39.41,-39.59,0,*74
1506769213.56,45964,16.31,74210.5,8.63,-37.81,-37.87,0,*7C
1506769214.78,45965,16.31,74208.5,8.57,-36.79,-36.85,0,*7F
1506769216.03,45966,16.31,74214.3,8.59,-36.73,-36.79,0,*7B
1506769217.3,45967,16.31,74210.3,8.59,-37.51,-37.69,0,*7B
1506769218.53,45968,16.31,74210.8,8.59,-39.47,-39.85,0,*71
1506769219.78,45969,16.31,74210.8,8.59,-38.85,-39.03,0,*71
1506769221.04,45970,16.31,74210.8,8.59,-38.29,-38.55,0,*7D
1506769222.24,45971,16.31,74214.0,8.57,-37.27,-37.45,0,*7D
1506769223.45,45972,16.31,74212.0,8.57,-35.71,-35.89,0,*7D
1506769224.72,45973,16.31,74214.8,8.59,-35.07,-35.23,0,*73
1506769225.96,45974,16.31,74212.8,8.63,-35.71,-35.77,0,*7D
1506769227.16,45975,16.31,74216.8,8.65,-37.15,-37.45,0,*79
1506769228.39,45976,16.31,74216.0,8.65,-38.17,-38.23,0,*78
1506769229.61,45977,16.31,74216.0,8.63,-38.05,-38.17,0,*7B
1506769230.85,45978,16.31,74214.3,8.63,-39.85,-40.15,0,*70
1506769232.1,45979,16.31,74214.3,8.63,-38.05,-38.23,0,*72
1506769233.33,45980,16.31,74210.3,8.63,-38.43,-38.61,0,*70
1506769234.56,45981,16.31,74214.5,8.59,-38.35,-38.55,0,*7E
1506769235.79,45982,16.31,74212.3,8.59,-37.57,-37.87,0,*76
1506769237.02,45983,16.31,74216.3,8.57,-37.75,-37.81,0,*7F
1506769238.25,45984,16.31,74220.5,8.57,-36.91,-37.15,0,*7E
1506769239.5,45985,16.31,74216.3,8.57,-39.53,-39.71,0,*72
1506769240.72,45986,16.31,74218.3,8.57,-39.35,-39.53,0,*71
1506769241.97,45987,16.31,74218.5,8.57,-38.11,-38.29,0,*7B
1506769243.2,45988,16.31,74212.5,8.57,-36.61,-36.67,0,*79
1506769244.43,45989,16.31,74218.3,8.53,-37.45,-37.51,0,*7F
1506769245.7,45990,16.31,74214.0,8.55,-36.61,-36.79,0,*7D
1506769246.95,45991,16.31,74212.5,8.55,-36.43,-36.61,0,*75
1506769248.16,45992,16.31,74212.0,8.57,-36.73,-36.73,0,*74
1506769249.42,45993,16.31,74214.0,8.59,-36.07,-36.25,0,*7B
1506769250.64,45994,16.31,74212.5,8.59,-35.89,-36.19,0,*76
1506769251.87,45995,16.31,74218.5,8.63,-36.01,-36.19,0,*7D
1506769253.13,45996,16.31,74212.8,8.65,-35.95,-36.13,0,*7C
1506769254.39,45997,16.31,74212.8,8.63,-36.37,-36.55,0,*72
1506769255.64,45998,16.31,74216.0,8.63,-37.99,-38.17,0,*70
1506769256.86,45999,16.31,74218.5,8.65,-36.13,-36.31,0,*7E
1506769258.1,46000,16.31,74212.8,8.65,-36.85,-36.91,0,*71
1506769259.35,46001,16.31,74216.3,8.65,-37.63,-37.81,0,*79
1506769260.55,46002,16.31,74212.3,8.65,-37.15,-37.27,0,*77
1506769261.81,46003,16.31,74208.8,8.63,-37.27,-37.51,0,*70
1506769263.09,46004,16.31,74216.3,8.63,-37.69,-37.81,0,*70
1506769264.32,46005,16.31,74218.5,8.63,-36.55,-36.67,0,*76
1506769265.53,46006,16.31,74216.3,8.65,-37.03,-37.15,0,*75
1506769266.78,46007,16.31,74212.8,8.65,-39.03,-39.23,0,*71
1506769268.06,46008,16.31,74214.3,8.63,-39.15,-39.41,0,*7B
1506769269.31,46009,16.31,74216.3,8.63,-38.67,-38.97,0,*74
1506769270.5,46010,16.31,74214.5,8.57,-39.35,-39.47,0,*71
1506769271.73,46011,16.31,74214.0,8.57,-39.15,-39.35,0,*77
1506769272.94,46012,16.31,74212.3,8.57,-40.15,-40.65,0,*71
1506769274.18,46013,16.31,74214.0,8.53,-40.15,-40.41,0,*72
1506769275.41,46014,16.31,74210.3,8.51,-40.15,-40.35,0,*74
1506769276.63,46015,16.31,74208.3,8.51,-39.35,-39.35,0,*77
1506769277.88,46016,16.31,74214.0,8.51,-38.23,-38.35,0,*73
1506769279.11,46017,16.31,74212.0,8.47,-36.43,-36.43,0,*72
1506769280.34,46018,16.31,74214.3,8.51,-35.59,-35.89,0,*77
1506769281.62,46019,16.31,74212.8,8.51,-37.51,-37.63,0,*7A
1506769282.85,46020,16.31,74214.0,8.51,-36.67,-36.73,0,*74
1506769284.07,46021,16.31,74216.3,8.51,-37.87,-38.17,0,*76
1506769285.3,46022,16.31,74214.3,8.51,-37.27,-37.27,0,*73
1506769286.57,46023,16.31,74216.0,8.51,-37.63,-37.69,0,*78
1506769287.81,46024,16.31,74216.5,8.51,-36.19,-36.37,0,*79
1506769289.06,46025,16.31,74216.8,8.55,-35.29,-35.35,0,*7D
1506769290.31,46026,16.31,74212.8,8.55,-36.43,-36.49,0,*79
1506769291.57,46027,16.31,74212.3,8.55,-37.27,-37.39,0,*7D
1506769292.79,46028,16.31,74218.8,8.55,-36.43,-36.43,0,*7D
1506769294.06,46029,16.31,74220.0,8.55,-35.35,-35.65,0,*79
1506769295.32,46030,16.31,74218.8,8.59,-35.29,-35.41,0,*76
1506769296.59,46031,16.31,74220.3,8.59,-35.23,-35.41,0,*7D
1506769297.85,46032,16.31,74218.5,8.59,-36.73,-36.91,0,*76
1506769299.13,46033,16.31,74220.3,8.63,-37.51,-37.63,0,*73
1506769300.41,46034,16.31,74220.0,8.63,-38.49,-38.67,0,*79
1506769301.64,46035,16.31,74220.0,8.63,-40.73,-41.03,0,*72
1506769302.91,46036,16.31,74220.3,8.57,-39.79,-40.09,0,*79
1506769304.13,46037,16.31,74214.8,8.55,-37.15,-37.27,0,*72
1506769305.35,46038,16.31,74216.8,8.55,-37.15,-37.27,0,*7D
1506769306.63,46039,16.31,74218.8,8.55,-37.39,-37.39,0,*7D
1506769307.91,46040,16.31,74214.3,8.55,-37.81,-37.93,0,*70
1506769309.16,46041,16.31,74216.3,8.55,-36.79,-36.97,0,*72
1506769310.38,46042,16.31,74214.5,8.55,-37.27,-37.45,0,*75
1506769311.61,46043,16.31,74218.8,8.55,-35.29,-35.29,0,*70
1506769312.81,46044,16.31,74216.0,8.57,-35.17,-35.29,0,*78
1506769314.07,46045,16.31,74218.3,8.59,-34.95,-35.13,0,*75
1506769315.31,46046,16.31,74218.3,8.63,-36.01,-36.01,0,*70
1506769316.57,46047,16.31,74222.5,8.63,-34.71,-34.65,0,*74
1506769317.81,46048,16.31,74216.5,8.65,-34.71,-34.65,0,*7D
1506769319.07,46049,16.31,74220.8,8.67,-36.25,-36.43,0,*7B
1506769320.35,46050,16.31,74216.3,8.67,-37.21,-37.39,0,*7A
1506769321.61,46051,16.31,74218.0,8.67,-37.21,-37.27,0,*74
1506769322.88,46052,16.31,74216.5,8.67,-36.13,-36.13,0,*71
1506769324.13,46053,16.31,74214.0,8.69,-38.11,-37.93,0,*7B
1506769325.42,46054,16.31,74208.0,8.67,-37.21,-37.39,0,*7E
1506769326.71,46055,16.31,74214.5,8.67,-37.81,-37.99,0,*7F
1506769327.98,46056,16.31,74210.0,8.67,-37.09,-37.09,0,*75
1506769329.23,46057,16.31,74212.8,8.67,-36.67,-36.79,0,*7B
1506769330.46,46058,16.31,74210.3,8.67,-37.27,-37.45,0,*7F
1506769331.69,46059,16.31,74206.8,8.67,-37.27,-37.57,0,*7D
1506769332.91,46060,16.31,74208.3,8.63,-38.85,-38.97,0,*77
1506769334.19,46061,16.31,74210.8,8.63,-38.79,-39.03,0,*79
1506769335.44,46062,16.31,74212.5,8.63,-37.09,-37.27,0,*7A
1506769336.67,46063,16.31,74210.3,8.63,-38.61,-38.85,0,*7D
1506769337.92,46064,16.31,74212.0,8.63,-38.97,-39.15,0,*7B
1506769339.18,46065,16.31,74212.3,8.63,-36.85,-36.91,0,*74
1506769340.45,46066,16.31,74214.0,8.59,-35.07,-35.23,0,*7D
1506769341.7,46067,16.31,74212.3,8.63,-35.41,-35.59,0,*7A
1506769342.9,46068,16.31,74212.8,8.65,-37.15,-37.33,0,*7E
1506769344.14,46069,16.31,74210.0,8.65,-36.49,-36.55,0,*76
1506769345.37,46070,16.31,74216.8,8.65,-36.37,-36.55,0,*77
1506769346.58,46071,16.31,74212.0,8.65,-35.59,-35.77,0,*7E
1506769347.84,46072,16.31,74218.3,8.67,-36.25,-36.43,0,*73
1506769349.09,46073,16.31,74214.0,8.71,-37.87,-37.93,0,*70
1506769350.35,46074,16.31,74218.5,8.67,-35.89,-35.95,0,*78
1506769351.6,46075,16.31,74216.8,8.67,-36.07,-36.13,0,*71
1506769352.84,46076,16.31,74216.0,8.69,-34.77,-34.83,0,*72
1506769354.09,46077,16.31,74216.5,8.69,-34.01,-34.01,0,*78
1506769355.31,46078,16.31,74216.8,8.73,-35.41,-35.59,0,*75
1506769356.54,46079,16.31,74212.3,8.73,-35.95,-36.01,0,*73
1506769357.77,46080,16.31,74218.5,8.75,-35.89,-36.07,0,*78
1506769358.98,46081,16.31,74212.3,8.73,-34.71,-35.01,0,*7C
1506769360.24,46082,16.38,74220.0,8.75,-35.53,-35.53,0,*7F
1506769361.47,46083,16.31,74216.8,8.77,-35.47,-35.59,0,*73
1506769362.71,46084,16.31,74216.8,8.77,-35.77,-35.89,0,*7A
1506769363.96,46085,16.31,74214.0,8.77,-35.59,-35.53,0,*70
1506769365.19,46086,16.31,74216.3,8.81,-34.71,-34.71,0,*70
1506769366.43,46087,16.38,74218.8,8.79,-36.19,-36.25,0,*79
1506769367.63,46088,16.31,74212.0,8.79,-36.43,-36.43,0,*79
1506769368.88,46089,16.31,74212.5,8.81,-37.03,-37.21,0,*7F
1506769370.11,46090,16.31,74214.3,8.79,-37.99,-38.17,0,*79
1506769371.37,46091,16.31,74216.8,8.79,-39.71,-39.71,0,*71
1506769372.65,46092,16.31,74216.0,8.75,-37.81,-37.81,0,*7E
1506769373.9,46093,16.31,74216.5,8.75,-38.91,-39.09,0,*7F
1506769375.16,46094,16.31,74216.0,8.73,-35.83,-35.95,0,*79
1506769376.36,46095,16.31,74216.0,8.73,-36.19,-36.31,0,*75
1506769377.58,46096,16.31,74216.5,8.75,-37.27,-37.57,0,*7D
1506769378.8,46097,16.31,74218.3,8.75,-36.67,-36.85,0,*77
1506769380.05,46098,16.31,74218.0,8.73,-35.41,-35.53,0,*71
1506769381.28,46099,16.31,74218.3,8.75,-35.01,-35.01,0,*75
1506769382.5,46100,16.31,74216.0,8.77,-35.13,-35.17,0,*72
1506769383.76,46101,16.31,74214.3,8.77,-36.43,-36.49,0,*7D
1506769384.97,46102,16.31,74218.3,8.79,-36.73,-36.73,0,*7A
1506769386.22,46103,16.31,74218.5,8.79,-38.49,-38.67,0,*77
1506769387.5,46104,16.31,74216.3,8.77,-37.93,-37.93,0,*72
1506769388.73,46105,16.31,74212.3,8.75,-36.67,-36.67,0,*71
1506769389.98,46106,16.31,74212.8,8.75,-37.63,-37.75,0,*75
1506769391.24,46107,16.31,74214.5,8.77,-38.17,-38.23,0,*76
1506769392.52,46108,16.31,74212.5,8.75,-39.41,-39.71,0,*7F
1506769393.74,46109,16.31,74212.0,8.71,-37.75,-37.87,0,*74
1506769395.0,46110,16.31,74216.0,8.71,-38.85,-38.91,0,*74
1506769396.25,46111,16.31,74216.8,8.71,-39.71,-39.85,0,*7B
1506769397.49,46112,16.31,74214.8,8.67,-40.29,-40.35,0,*79
1506769398.77,46113,16.31,74216.5,8.67,-37.99,-38.11,0,*7A
1506769400.03,46114,16.31,74218.5,8.65,-37.99,-37.99,0,*70
1506769401.25,46115,16.31,74218.0,8.65,-39.23,-39.35,0,*76
1506769402.53,46116,16.38,74220.8,8.63,-38.23,-38.23,0,*74
1506769403.79,46117,16.31,74222.0,8.65,-37.63,-37.51,0,*72
1506769405.04,46118,16.31,74220.0,8.63,-37.45,-37.63,0,*7E
1506769406.32,46119,16.31,74216.0,8.63,-38.23,-38.29,0,*71
1506769407.58,46120,16.31,74218.0,8.63,-37.09,-37.15,0,*7C
1506769408.85,46121,16.31,74218.8,8.63,-35.41,-35.53,0,*73
1506769410.09,46122,16.31,74216.5,8.65,-35.07,-35.01,0,*73
1506769411.29,46123,16.31,74216.8,8.65,-35.59,-35.71,0,*7E
1506769412.56,46124,16.31,74214.3,8.71,-34.31,-34.19,0,*7C
1506769413.76,46125,16.31,74216.8,8.73,-36.67,-36.67,0,*75
1506769415.02,46126,16.31,74218.3,8.71,-35.71,-35.83,0,*79
1506769416.3,46127,16.31,74214.5,8.71,-36.25,-36.25,0,*75
1506769417.52,46128,16.38,74216.0,8.73,-37.99,-38.05,0,*72
1506769418.74,46129,16.31,74216.3,8.71,-38.17,-38.55,0,*7D
1506769420.0,46130,16.31,74214.0,8.71,-38.85,-38.91,0,*76
1506769421.2,46131,16.38,74218.0,8.69,-38.61,-38.73,0,*78
1506769422.45,46132,16.31,74208.5,8.67,-39.15,-39.35,0,*74
1506769423.66,46133,16.31,74212.3,8.65,-38.61,-38.85,0,*7F
1506769424.88,46134,16.31,74214.0,8.65,-37.51,-37.27,0,*73
1506769426.13,46135,16.31,74214.0,8.63,-36.19,-36.37,0,*79
1506769427.34,46136,16.31,74214.5,8.65,-35.77,-35.71,0,*76
1506769428.56,46137,16.31,74212.0,8.67,-35.71,-35.71,0,*73
1506769429.76,46138,16.31,74210.8,8.69,-35.17,-35.13,0,*76
1506769430.97,46139,16.31,74210.0,8.69,-37.45,-37.75,0,*70
1506769432.17,46140,16.31,74208.0,8.69,-37.03,-37.27,0,*7B
1506769433.4,46141,16.38,74208.8,8.69,-37.99,-38.17,0,*75
1506769434.63,46142,16.31,74210.8,8.69,-37.75,-37.99,0,*7D
1506769435.88,46143,16.31,74210.8,8.67,-37.27,-37.21,0,*76
1506769437.08,46144,16.31,74208.3,8.69,-35.71,-35.71,0,*79
1506769438.32,46145,16.31,74208.5,8.69,-36.61,-36.67,0,*7E
1506769439.57,46146,16.31,74208.8,8.69,-36.61,-36.61,0,*7B
1506769440.78,46147,16.31,74208.5,8.69,-35.13,-35.29,0,*73
1506769442.03,46148,16.31,74208.3,8.69,-36.61,-36.61,0,*75
1506769443.24,46149,16.31,74206.5,8.69,-35.77,-35.71,0,*72
1506769444.46,46150,16.31,74208.0,8.71,-36.73,-36.97,0,*7F
1506769445.74,46151,16.31,74204.0,8.71,-36.91,-36.79,0,*72
1506769446.96,46152,16.38,74208.8,8.73,-38.05,-38.11,0,*70
1506769448.18,46153,16.38,74210.5,8.71,-38.17,-38.55,0,*70
1506769449.42,46154,16.31,74208.5,8.69,-39.91,-40.09,0,*77
1506769450.67,46155,16.31,74206.5,8.67,-39.35,-39.29,0,*7A
1506769451.9,46156,16.31,74212.8,8.65,-38.43,-38.49,0,*7C
1506769453.13,46157,16.31,74210.5,8.65,-37.69,-37.87,0,*77
1506769454.42,46158,16.31,74206.0,8.63,-39.15,-39.15,0,*7E
1506769455.67,46159,16.31,74208.3,8.63,-40.85,-41.03,0,*70
1506769456.93,46160,16.31,74206.5,8.63,-40.03,-40.21,0,*75
1506769458.13,46161,16.31,74208.0,8.57,-41.49,-41.73,0,*7A
1506769459.35,46162,16.31,74206.0,8.57,-38.73,-38.91,0,*7C
1506769460.6,46163,16.31,74208.5,8.53,-39.41,-39.41,0,*75
1506769461.83,46164,16.31,74208.5,8.53,-38.61,-38.79,0,*7B
1506769463.04,46165,16.31,74206.0,8.53,-36.67,-36.73,0,*76
1506769464.27,46166,16.31,74208.3,8.55,-35.01,-35.13,0,*75
1506769465.53,46167,16.38,74210.8,8.55,-35.89,-35.95,0,*7A
1506769466.73,46168,16.31,74210.3,8.53,-35.17,-35.17,0,*7E
1506769468.02,46169,16.31,74210.8,8.59,-34.53,-34.53,0,*75
1506769469.3,46170,16.31,74210.3,8.63,-35.95,-35.95,0,*74
1506769470.56,46171,16.31,74210.3,8.63,-36.85,-36.91,0,*70
1506769471.78,46172,16.31,74208.3,8.63,-35.71,-35.71,0,*76
1506769473.0,46173,16.31,74210.8,8.65,-35.53,-35.59,0,*7B
1506769474.21,46174,16.38,74212.8,8.65,-36.01,-36.31,0,*75
1506769475.42,46175,16.38,74214.5,8.65,-36.01,-36.01,0,*77
1506769476.65,46176,16.31,74210.5,8.65,-34.89,-34.65,0,*76
1506769477.91,46177,16.31,74210.5,8.67,-35.65,-35.77,0,*74
1506769479.12,46178,16.31,74210.3,8.69,-35.01,-35.13,0,*75
1506769480.36,46179,16.31,74210.3,8.69,-35.53,-35.53,0,*77
1506769481.59,46180,16.31,74212.8,8.71,-35.59,-35.47,0,*77
1506769482.82,46181,16.31,74212.3,8.73,-35.53,-35.41,0,*78
1506769484.08,46182,16.31,74208.5,8.73,-35.07,-35.07,0,*78
1506769485.32,46183,16.31,74208.5,8.73,-35.65,-35.83,0,*71
1506769486.54,46184,16.38,74214.3,8.73,-35.53,-35.59,0,*74
1506769487.76,46185,16.31,74214.0,8.75,-35.29,-35.13,0,*70
1506769488.99,46186,16.31,74214.5,8.77,-36.07,-36.07,0,*78
1506769490.22,46187,16.31,74208.0,8.77,-36.31,-36.43,0,*7C
1506769491.48,46188,16.38,74210.8,8.77,-36.25,-36.31,0,*73
1506769492.74,46189,16.31,74208.5,8.77,-36.07,-36.13,0,*72
1506769494.03,46190,16.31,74210.5,8.77,-35.95,-35.95,0,*7F
1506769495.27,46191,16.38,74212.0,8.75,-38.91,-38.97,0,*7A
1506769496.49,46192,16.38,74214.0,8.75,-37.75,-37.57,0,*7F
1506769497.75,46193,16.38,74214.5,8.75,-37.21,-37.27,0,*78
1506769498.99,46194,16.38,74212.0,8.75,-36.91,-36.85,0,*7C
1506769500.27,46195,16.31,74212.5,8.75,-37.21,-37.09,0,*72
1506769501.55,46196,16.31,74212.3,8.75,-37.99,-37.99,0,*7B
1506769502.76,46197,16.31,74210.0,8.73,-36.67,-36.67,0,*7C
1506769503.99,46198,16.31,74212.3,8.73,-36.49,-36.55,0,*7E
1506769505.21,46199,16.38,74210.5,8.73,-36.49,-36.67,0,*7E
1506769506.44,46200,16.38,74212.3,8.73,-37.87,-37.93,0,*74
1506769507.69,46201,16.38,74214.3,8.73,-36.37,-36.37,0,*70
1506769508.95,46202,16.31,74210.5,8.71,-38.11,-38.11,0,*71
1506769510.23,46203,16.31,74208.0,8.71,-39.41,-39.41,0,*70
1506769511.5,46204,16.38,74212.0,8.71,-40.29,-40.59,0,*70
1506769512.72,46205,16.38,74212.3,8.67,-40.47,-40.65,0,*71
1506769513.95,46206,16.38,74208.0,8.67,-38.35,-38.35,0,*72
1506769515.21,46207,16.31,74210.0,8.63,-37.87,-37.81,0,*71
1506769516.46,46208,16.31,74210.5,8.63,-38.23,-38.43,0,*7E
1506769517.7,46209,16.38,74210.5,8.63,-37.15,-37.15,0,*79
1506769518.96,46210,16.38,74210.8,8.63,-35.95,-35.77,0,*7D
1506769520.18,46211,16.38,74208.3,8.63,-37.15,-37.27,0,*71
1506769521.44,46212,16.38,74212.8,8.63,-37.99,-37.87,0,*7C
1506769522.67,46213,16.31,74208.8,8.65,-38.23,-38.17,0,*73
1506769523.93,46214,16.38,74210.0,8.63,-37.87,-37.99,0,*7A
1506769525.18,46215,16.31,74208.3,8.63,-38.67,-38.85,0,*78
1506769526.44,46216,16.38,74212.8,8.63,-38.29,-38.43,0,*7B
1506769527.71,46217,16.38,74210.3,8.59,-37.93,-37.93,0,*7F
1506769528.97,46218,16.38,74210.0,8.59,-37.09,-37.15,0,*7D
1506769530.2,46219,16.31,74208.0,8.59,-36.43,-36.43,0,*71
1506769531.42,46220,16.38,74210.5,8.59,-36.19,-36.19,0,*7B
1506769532.67,46221,16.38,74208.0,8.63,-36.31,-36.37,0,*75
1506769533.96,46222,16.38,74208.3,8.63,-37.63,-37.63,0,*70
1506769535.19,46223,16.38,74208.0,8.65,-37.09,-37.15,0,*7A
1506769536.42,46224,16.31,74206.3,8.63,-37.27,-37.33,0,*73
1506769537.65,46225,16.38,74206.3,8.63,-37.03,-37.03,0,*77
1506769538.93,46226,16.31,74204.5,8.63,-37.81,-37.69,0,*72
1506769540.2,46227,16.31,74206.0,8.63,-39.03,-39.15,0,*72
1506769541.46,46228,16.38,74204.8,8.59,-39.59,-39.85,0,*72
1506769542.67,46229,16.38,74210.3,8.57,-38.43,-38.55,0,*7B
1506769543.89,46230,16.38,74210.3,8.57,-40.29,-40.65,0,*7C
1506769545.12,46231,16.38,74208.3,8.53,-40.03,-40.41,0,*77
1506769546.38,46232,16.38,74210.8,8.53,-40.41,-40.59,0,*7B
1506769547.63,46233,16.31,74206.3,8.53,-39.53,-39.71,0,*73
1506769548.91,46234,16.31,74206.8,8.51,-40.41,-40.59,0,*7F
1506769550.14,46235,16.38,74214.3,8.49,-38.43,-38.49,0,*74
1506769551.37,46236,16.31,74208.5,8.47,-37.45,-37.57,0,*70
1506769552.65,46237,16.38,74212.8,8.47,-37.39,-37.39,0,*72
1506769553.91,46238,16.31,74212.0,8.47,-36.01,-35.83,0,*74
1506769555.13,46239,16.31,74212.8,8.51,-37.03,-37.03,0,*7B
1506769556.34,46240,16.31,74210.5,8.49,-35.71,-35.77,0,*7A
1506769557.59,46241,16.31,74210.3,8.51,-36.73,-36.91,0,*78
1506769558.81,46242,16.38,74212.0,8.51,-37.45,-37.45,0,*77
1506769560.04,46243,16.38,74212.3,8.51,-36.67,-36.67,0,*76
1506769561.27,46244,16.38,74212.5,8.51,-37.87,-38.05,0,*74
1506769562.49,46245,16.38,74216.0,8.53,-37.99,-38.05,0,*78
1506769563.72,46246,16.38,74208.5,8.53,-38.43,-38.49,0,*7B
1506769564.97,46247,16.38,74214.0,8.51,-38.67,-38.85,0,*7E
1506769566.2,46248,16.38,74208.3,8.49,-37.87,-37.93,0,*71
1506769567.46,46249,16.38,74214.3,8.49,-35.83,-35.83,0,*75
1506769568.71,46250,16.38,74208.8,8.51,-37.03,-36.91,0,*7E
1506769569.93,46251,16.31,74210.3,8.51,-38.05,-38.05,0,*75
1506769571.16,46252,16.38,74212.3,8.53,-38.43,-38.49,0,*7E
1506769572.42,46253,16.38,74212.5,8.53,-37.63,-37.63,0,*75
1506769573.66,46254,16.38,74214.8,8.51,-36.55,-36.37,0,*74
1506769574.95,46255,16.38,74214.8,8.51,-37.21,-37.21,0,*71
1506769576.2,46256,16.38,74214.3,8.51,-36.49,-36.55,0,*7F
1506769577.45,46257,16.38,74214.0,8.53,-35.41,-35.35,0,*72
1506769578.71,46258,16.38,74214.5,8.55,-35.95,-35.89,0,*75
1506769579.94,46259,16.38,74212.3,8.55,-35.29,-35.17,0,*74
1506769581.19,46260,16.38,74214.8,8.59,-35.65,-35.47,0,*7F
1506769582.46,46261,16.38,74218.0,8.59,-36.61,-36.61,0,*7E
1506769583.69,46262,16.38,74218.5,8.59,-36.07,-36.07,0,*7D
1506769584.96,46263,16.38,74214.5,8.59,-36.79,-36.91,0,*7A
1506769586.22,46264,16.38,74214.0,8.59,-37.33,-37.51,0,*7F
1506769587.45,46265,16.38,74214.3,8.59,-36.73,-36.73,0,*7A
1506769588.7,46266,16.38,74212.3,8.63,-36.91,-37.03,0,*7A
1506769589.94,46267,16.38,74212.8,8.63,-36.73,-36.67,0,*74
1506769591.16,46268,16.38,74214.0,8.63,-35.59,-35.71,0,*74
1506769592.43,46269,16.38,74210.8,8.63,-35.53,-36.13,0,*78
1506769593.69,46270,16.38,74210.8,8.63,-38.29,-38.43,0,*7B
1506769594.97,46271,16.31,74210.5,8.63,-37.51,-37.51,0,*76
1506769596.2,46272,16.38,74216.5,8.63,-37.15,-37.15,0,*75
1506769597.47,46273,16.38,74214.3,8.63,-36.13,-36.37,0,*72
1506769598.72,46274,16.38,74212.0,8.63,-36.91,-37.03,0,*79
1506769599.95,46275,16.38,74216.3,8.63,-37.33,-37.33,0,*72
1506769601.17,46276,16.38,74216.3,8.63,-37.15,-37.27,0,*70
1506769602.42,46277,16.38,74216.5,8.63,-36.55,-36.37,0,*74
1506769603.65,46278,16.31,74212.0,8.63,-36.31,-36.31,0,*7F
1506769604.93,46279,16.38,74212.8,8.63,-35.41,-35.53,0,*7D
1506769606.16,46280,16.38,74212.5,8.65,-35.07,-35.01,0,*78
1506769607.43,46281,16.38,74214.3,8.67,-35.53,-35.65,0,*78
1506769608.69,46282,16.38,74214.8,8.69,-35.95,-35.95,0,*70
1506769609.95,46283,16.38,74212.0,8.69,-37.63,-37.63,0,*71
1506769611.18,46284,16.38,74212.8,8.69,-37.99,-38.17,0,*7F
1506769612.45,46285,16.38,74212.0,8.67,-35.89,-35.95,0,*74
1506769613.68,46286,16.38,74212.5,8.69,-35.01,-34.95,0,*78
1506769614.89,46287,16.38,74214.3,8.69,-35.47,-35.47,0,*75
1506769616.09,46288,16.38,74212.0,8.69,-37.03,-37.03,0,*7A
1506769617.35,46289,16.38,74214.8,8.69,-37.09,-37.09,0,*7B
1506769618.58,46290,16.38,74212.0,8.69,-37.03,-37.09,0,*79
1506769619.78,46291,16.38,74210.5,8.69,-37.75,-37.75,0,*72
1506769621.06,46292,16.38,74214.0,8.71,-34.95,-34.95,0,*78
1506769622.31,46293,16.38,74208.8,8.71,-35.83,-35.71,0,*74
1506769623.53,46294,16.38,74210.5,8.73,-36.91,-36.97,0,*7A
1506769624.78,46295,16.38,74214.3,8.71,-35.47,-35.41,0,*79
1506769626.0,46296,16.38,74208.8,8.73,-35.23,-35.17,0,*79
1506769627.21,46297,16.38,74208.8,8.73,-36.55,-36.67,0,*7E
1506769628.46,46298,16.38,74210.5,8.73,-37.63,-37.51,0,*71
1506769629.66,46299,16.38,74214.0,8.73,-36.97,-36.97,0,*71
1506769630.93,46300,16.38,74218.3,8.71,-37.93,-38.11,0,*77
1506769632.19,46301,16.38,74214.5,8.71,-37.21,-37.15,0,*74
1506769633.42,46302,16.38,74214.3,8.71,-36.01,-36.01,0,*70
1506769634.63,46303,16.38,74212.0,8.73,-36.55,-36.55,0,*73
1506769635.9,46304,16.38,74214.8,8.71,-36.91,-36.91,0,*76
1506769637.13,46305,16.38,74212.8,8.71,-37.15,-37.15,0,*77
1506769638.38,46306,16.38,74208.5,8.71,-35.23,-35.13,0,*77
1506769639.61,46307,16.38,74214.8,8.73,-34.59,-34.53,0,*7D
1506769640.85,46308,16.38,74214.3,8.75,-36.79,-36.85,0,*7D
1506769642.08,46309,16.38,74210.3,8.75,-38.43,-38.35,0,*7E
1506769643.3,46310,16.38,74210.0,8.71,-38.73,-38.73,0,*73
1506769644.55,46311,16.38,74212.0,8.71,-37.21,-37.15,0,*75
1506769645.76,46312,16.38,74214.3,8.73,-35.77,-35.77,0,*73
1506769646.99,46313,16.31,74208.0,8.75,-35.17,-35.29,0,*79
1506769648.24,46314,16.38,74210.3,8.75,-36.49,-36.43,0,*79
1506769649.47,46315,16.38,74212.5,8.75,-35.89,-35.89,0,*72
1506769650.73,46316,16.38,74210.0,8.75,-36.31,-36.25,0,*74
1506769651.97,46317,16.38,74212.0,8.75,-35.47,-35.35,0,*75
1506769653.21,46318,16.38,74210.3,8.77,-35.71,-35.77,0,*7B
1506769654.46,46319,16.38,74214.8,8.77,-36.67,-36.79,0,*73
1506769655.69,46320,16.38,74214.0,8.77,-37.75,-37.75,0,*76
1506769656.96,46321,16.38,74214.5,8.77,-35.53,-35.35,0,*77
1506769658.21,46322,16.38,74210.3,8.79,-34.35,-34.31,0,*7E
1506769659.46,46323,16.38,74210.3,8.81,-35.23,-35.29,0,*76
1506769660.67,46324,16.38,74212.0,8.79,-34.77,-34.89,0,*7D
1506769661.91,46325,16.38,74218.0,8.85,-34.35,-34.25,0,*7F
1506769663.13,46326,16.38,74212.3,8.87,-34.31,-34.07,0,*7A
1506769664.34,46327,16.38,74210.8,8.87,-35.29,-35.29,0,*7E
1506769665.54,46328,16.38,74218.0,8.87,-36.73,-36.73,0,*71
1506769666.74,46329,16.38,74208.8,8.87,-35.13,-35.01,0,*73
1506769667.98,46330,16.38,74210.3,8.89,-34.41,-34.31,0,*71
1506769669.22,46331,16.38,74214.3,8.91,-35.65,-35.65,0,*7E
1506769670.42,46332,16.38,74212.0,8.91,-36.43,-36.43,0,*7D
1506769671.65,46333,16.38,74216.5,8.89,-35.01,-35.01,0,*75
1506769672.92,46334,16.38,74212.0,8.93,-34.35,-34.19,0,*77
1506769674.12,46335,16.38,74210.8,8.95,-34.07,-33.95,0,*72
1506769675.31,46336,16.38,74212.0,8.95,-35.17,-35.17,0,*7D
1506769676.5,46337,16.38,74214.0,8.95,-35.59,-35.59,0,*7C
1506769677.69,46338,16.38,74208.5,8.99,-35.71,-35.71,0,*7F
1506769678.89,46339,16.38,74208.8,8.99,-35.17,-35.13,0,*7A
1506769680.11,46340,16.38,74210.3,8.97,-36.85,-36.85,0,*7E
1506769681.39,46341,16.38,74206.8,8.97,-36.25,-36.25,0,*7F
1506769682.64,46342,16.38,74208.5,8.97,-39.91,-39.97,0,*7A
1506769683.88,46343,16.38,74210.3,8.97,-38.97,-39.15,0,*76
1506769685.1,46344,16.38,74214.0,8.93,-37.03,-36.85,0,*71
1506769686.32,46345,16.38,74210.5,8.93,-35.47,-35.47,0,*7F
1506769687.58,46346,16.38,74208.3,8.93,-35.89,-35.83,0,*76
1506769688.8,46347,16.38,74204.3,8.95,-38.61,-38.79,0,*72
1506769689.99,46348,16.38,74204.8,8.91,-39.35,-39.47,0,*75
1506769691.27,46349,16.38,74204.8,8.89,-39.41,-39.59,0,*71
1506769692.52,46350,16.38,74200.8,8.89,-37.87,-37.99,0,*7F
1506769693.77,46351,16.38,74210.0,8.89,-37.99,-38.05,0,*7B
1506769694.96,46352,16.38,74204.8,8.87,-38.35,-38.35,0,*7C
1506769696.24,46353,16.38,74206.8,8.85,-37.51,-37.51,0,*7F
1506769697.52,46354,16.38,74208.0,8.85,-39.29,-39.59,0,*7F
1506769698.76,46355,16.38,74204.3,8.81,-40.21,-40.47,0,*7D
1506769699.99,46356,16.38,74204.0,8.77,-38.97,-39.09,0,*71
1506769701.24,46357,16.38,74208.8,8.77,-37.39,-37.27,0,*79
1506769702.49,46358,16.38,74204.3,8.77,-35.35,-35.29,0,*74
1506769703.71,46359,16.38,74204.3,8.79,-36.01,-35.89,0,*75
1506769704.94,46360,16.38,74202.0,8.81,-36.97,-37.03,0,*77